Time,TemperatureF,DewpointF,PressureIn,WindDirection,WindDirectionDegrees,WindSpeedMPH,WindSpeedGustMPH,Humidity,HourlyPrecipIn,Conditions,Clouds,dailyrainin,SoftwareType,DateUTC
2013-12-01 00:09:00,40.9,29.0,30.12,SSW,197,5.0,8.0,62,0.00,,,0.00,weatherlink.com 1.10,2013-12-01 05:09:00,
2013-12-01 00:24:00,41.5,29.0,30.12,SSW,194,4.0,8.0,61,0.00,,,0.00,weatherlink.com 1.10,2013-12-01 05:24:00,
2013-12-01 00:40:00,42.0,28.0,30.12,SSW,194,8.0,11.0,59,0.00,,,0.00,weatherlink.com 1.10,2013-12-01 05:40:00,
2013-12-01 00:55:00,42.3,28.0,30.11,SSW,193,5.0,9.0,58,0.00,,,0.00,weatherlink.com 1.10,2013-12-01 05:55:00,
2013-12-01 01:10:00,42.3,29.0,30.11,SW,214,9.0,13.0,59,0.00,,,0.00,weatherlink.com 1.10,2013-12-01 06:10:00,
2013-12-01 01:25:00,42.2,29.0,30.10,South,172,4.0,11.0,59,0.00,,,0.00,weatherlink.com 1.10,2013-12-01 06:25:00,
2013-12-01 01:55:00,41.3,28.0,30.09,SW,215,5.0,10.0,60,0.00,,,0.00,weatherlink.com 1.10,2013-12-01 06:55:00,
2013-12-01 02:10:00,40.5,28.0,30.09,SSW,194,6.0,9.0,61,0.00,,,0.00,weatherlink.com 1.10,2013-12-01 07:10:00,
2013-12-01 02:25:00,39.9,28.0,30.10,SSW,207,4.0,10.0,63,0.00,,,0.00,weatherlink.com 1.10,2013-12-01 07:25:00,
2013-12-01 02:40:00,39.3,28.0,30.10,SSW,205,5.0,7.0,64,0.00,,,0.00,weatherlink.com 1.10,2013-12-01 07:40:00,
2013-12-01 02:55:00,38.9,28.0,30.10,SSW,201,3.0,7.0,65,0.00,,,0.00,weatherlink.com 1.10,2013-12-01 07:55:00,
2013-12-01 03:10:00,38.9,28.0,30.09,South,191,4.0,7.0,66,0.00,,,0.00,weatherlink.com 1.10,2013-12-01 08:10:00,
2013-12-01 03:25:00,39.5,29.0,30.09,SSW,210,5.0,9.0,66,0.00,,,0.00,weatherlink.com 1.10,2013-12-01 08:25:00,
2013-12-01 03:40:00,39.8,29.0,30.09,SW,224,4.0,7.0,65,0.00,,,0.00,weatherlink.com 1.10,2013-12-01 08:40:00,
2013-12-01 03:55:00,39.8,29.0,30.08,SSW,211,4.0,8.0,66,0.00,,,0.00,weatherlink.com 1.10,2013-12-01 08:55:00,
2013-12-01 04:10:00,39.3,29.0,30.07,SSW,208,2.0,8.0,67,0.00,,,0.00,weatherlink.com 1.10,2013-12-01 09:10:00,
2013-12-01 04:25:00,38.9,29.0,30.07,SSW,198,5.0,8.0,68,0.00,,,0.00,weatherlink.com 1.10,2013-12-01 09:25:00,
2013-12-01 04:55:00,38.1,29.0,30.07,SW,215,4.0,5.0,70,0.00,,,0.00,weatherlink.com 1.10,2013-12-01 09:55:00,
2013-12-01 05:10:00,37.5,29.0,30.07,SW,214,4.0,4.0,72,0.00,,,0.00,weatherlink.com 1.10,2013-12-01 10:10:00,
2013-12-01 05:25:00,37.2,29.0,30.07,SSW,201,5.0,7.0,72,0.00,,,0.00,weatherlink.com 1.10,2013-12-01 10:25:00,
2013-12-01 05:40:00,36.7,29.0,30.08,SW,228,1.0,4.0,73,0.00,,,0.00,weatherlink.com 1.10,2013-12-01 10:40:00,
2013-12-01 05:55:00,36.2,29.0,30.08,SW,233,1.0,3.0,74,0.00,,,0.00,weatherlink.com 1.10,2013-12-01 10:55:00,
2013-12-01 06:10:00,35.7,29.0,30.08,SSW,194,3.0,5.0,76,0.00,,,0.00,weatherlink.com 1.10,2013-12-01 11:10:00,
2013-12-01 06:25:00,35.3,28.0,30.08,SW,219,2.0,4.0,76,0.00,,,0.00,weatherlink.com 1.10,2013-12-01 11:25:00,
2013-12-01 06:40:00,34.9,28.0,30.08,South,181,2.0,3.0,77,0.00,,,0.00,weatherlink.com 1.10,2013-12-01 11:40:00,
2013-12-01 06:55:00,34.5,28.0,30.08,WSW,250,2.0,4.0,78,0.00,,,0.00,weatherlink.com 1.10,2013-12-01 11:55:00,
2013-12-01 07:10:00,34.0,28.0,30.08,SW,214,1.0,2.0,79,0.00,,,0.00,weatherlink.com 1.10,2013-12-01 12:10:00,
2013-12-01 07:25:00,33.9,28.0,30.08,SW,231,1.0,3.0,79,0.00,,,0.00,weatherlink.com 1.10,2013-12-01 12:25:00,
2013-12-01 07:40:00,33.1,28.0,30.08,SW,222,1.0,3.0,81,0.00,,,0.00,weatherlink.com 1.10,2013-12-01 12:40:00,
2013-12-01 07:56:00,33.1,28.0,30.08,SW,230,1.0,2.0,81,0.00,,,0.00,weatherlink.com 1.10,2013-12-01 12:56:00,
2013-12-01 08:11:00,33.2,28.0,30.09,SW,215,2.0,4.0,82,0.00,,,0.00,weatherlink.com 1.10,2013-12-01 13:11:00,
2013-12-01 08:26:00,33.7,28.0,30.08,SSW,200,2.0,4.0,81,0.00,,,0.00,weatherlink.com 1.10,2013-12-01 13:26:00,
2013-12-01 08:41:00,34.1,29.0,30.08,SSW,212,2.0,3.0,81,0.00,,,0.00,weatherlink.com 1.10,2013-12-01 13:41:00,
2013-12-01 08:56:00,34.4,29.0,30.09,West,259,3.0,4.0,81,0.00,,,0.00,weatherlink.com 1.10,2013-12-01 13:56:00,
2013-12-01 09:11:00,34.7,30.0,30.09,West,277,1.0,3.0,82,0.00,,,0.00,weatherlink.com 1.10,2013-12-01 14:11:00,
2013-12-01 09:26:00,35.1,30.0,30.10,WSW,252,3.0,4.0,82,0.00,,,0.00,weatherlink.com 1.10,2013-12-01 14:26:00,
2013-12-01 09:41:00,35.2,30.0,30.09,West,274,3.0,7.0,81,0.00,,,0.00,weatherlink.com 1.10,2013-12-01 14:41:00,
2013-12-01 09:56:00,35.3,30.0,30.10,West,259,5.0,5.0,82,0.00,,,0.00,weatherlink.com 1.10,2013-12-01 14:56:00,
2013-12-01 10:11:00,35.4,30.0,30.10,WSW,243,6.0,6.0,81,0.00,,,0.00,weatherlink.com 1.10,2013-12-01 15:11:00,
2013-12-01 10:26:00,35.7,30.0,30.11,WNW,288,2.0,5.0,81,0.00,,,0.00,weatherlink.com 1.10,2013-12-01 15:26:00,
2013-12-01 10:41:00,35.9,31.0,30.11,SW,233,3.0,4.0,82,0.00,,,0.00,weatherlink.com 1.10,2013-12-01 15:41:00,
2013-12-01 10:56:00,36.6,31.0,30.11,WSW,252,2.0,3.0,81,0.00,,,0.00,weatherlink.com 1.10,2013-12-01 15:56:00,
2013-12-01 11:11:00,37.0,32.0,30.11,West,274,2.0,5.0,82,0.00,,,0.00,weatherlink.com 1.10,2013-12-01 16:11:00,
2013-12-01 11:26:00,37.6,33.0,30.10,WNW,287,1.0,4.0,82,0.00,,,0.00,weatherlink.com 1.10,2013-12-01 16:26:00,
2013-12-01 11:41:00,38.3,33.0,30.09,West,269,1.0,4.0,82,0.00,,,0.00,weatherlink.com 1.10,2013-12-01 16:41:00,
2013-12-01 11:56:00,39.1,34.0,30.09,West,263,3.0,3.0,81,0.00,,,0.00,weatherlink.com 1.10,2013-12-01 16:56:00,
2013-12-01 12:11:00,39.5,34.0,30.08,WNW,293,1.0,5.0,82,0.00,,,0.00,weatherlink.com 1.10,2013-12-01 17:11:00,
2013-12-01 12:26:00,40.2,35.0,30.07,NE,40,2.0,7.0,82,0.00,,,0.00,weatherlink.com 1.10,2013-12-01 17:26:00,
2013-12-01 12:41:00,41.7,36.0,30.06,NNE,32,2.0,3.0,81,0.00,,,0.00,weatherlink.com 1.10,2013-12-01 17:41:00,
2013-12-01 12:56:00,42.4,36.0,30.05,WNW,285,0.0,2.0,78,0.00,,,0.00,weatherlink.com 1.10,2013-12-01 17:56:00,
2013-12-01 13:11:00,42.5,36.0,30.05,West,262,3.0,4.0,78,0.00,,,0.00,weatherlink.com 1.10,2013-12-01 18:11:00,
2013-12-01 13:26:00,42.8,36.0,30.04,WSW,238,2.0,4.0,78,0.00,,,0.00,weatherlink.com 1.10,2013-12-01 18:26:00,
2013-12-01 13:41:00,43.3,36.0,30.04,WNW,291,4.0,5.0,75,0.00,,,0.00,weatherlink.com 1.10,2013-12-01 18:41:00,
2013-12-01 13:56:00,43.7,35.0,30.04,NW,304,4.0,7.0,72,0.00,,,0.00,weatherlink.com 1.10,2013-12-01 18:56:00,
2013-12-01 14:11:00,43.7,36.0,30.03,WNW,282,4.0,6.0,73,0.00,,,0.00,weatherlink.com 1.10,2013-12-01 19:11:00,
2013-12-01 14:41:00,43.7,36.0,30.02,WNW,288,4.0,8.0,73,0.00,,,0.00,weatherlink.com 1.10,2013-12-01 19:41:00,
2013-12-01 14:56:00,43.6,37.0,30.02,West,279,2.0,6.0,77,0.00,,,0.00,weatherlink.com 1.10,2013-12-01 19:56:00,
2013-12-01 15:11:00,43.6,36.0,30.02,WNW,294,3.0,7.0,75,0.00,,,0.00,weatherlink.com 1.10,2013-12-01 20:11:00,
2013-12-01 15:26:00,42.8,36.0,30.02,North,352,4.0,10.0,78,0.00,,,0.00,weatherlink.com 1.10,2013-12-01 20:26:00,
2013-12-01 15:41:00,42.4,36.0,30.02,North,360,3.0,8.0,77,0.00,,,0.00,weatherlink.com 1.10,2013-12-01 20:41:00,
2013-12-01 16:11:00,41.8,35.0,30.02,NW,316,3.0,6.0,77,0.00,,,0.00,weatherlink.com 1.10,2013-12-01 21:11:00,
2013-12-01 16:26:00,41.5,35.0,30.03,North,360,2.0,4.0,77,0.00,,,0.00,weatherlink.com 1.10,2013-12-01 21:26:00,
2013-12-01 16:56:00,40.9,34.0,30.03,NW,304,6.0,7.0,75,0.00,,,0.00,weatherlink.com 1.10,2013-12-01 21:56:00,
2013-12-01 17:26:00,39.9,33.0,30.03,WNW,294,3.0,9.0,76,0.00,,,0.00,weatherlink.com 1.10,2013-12-01 22:26:00,
2013-12-01 17:41:00,39.3,32.0,30.04,WNW,297,3.0,7.0,76,0.00,,,0.00,weatherlink.com 1.10,2013-12-01 22:41:00,
2013-12-01 17:56:00,38.3,32.0,30.04,North,6,2.0,4.0,77,0.00,,,0.00,weatherlink.com 1.10,2013-12-01 22:56:00,
2013-12-01 18:11:00,37.4,31.0,30.03,NW,321,0.0,1.0,78,0.00,,,0.00,weatherlink.com 1.10,2013-12-01 23:11:00,
2013-12-01 18:26:00,35.7,30.0,30.04,NW,321,0.0,0.0,80,0.00,,,0.00,weatherlink.com 1.10,2013-12-01 23:26:00,
2013-12-01 18:41:00,33.6,29.0,30.04,NW,321,0.0,0.0,82,0.00,,,0.00,weatherlink.com 1.10,2013-12-01 23:41:00,
2013-12-01 18:56:00,32.8,29.0,30.04,NW,321,0.0,0.0,86,0.00,,,0.00,weatherlink.com 1.10,2013-12-01 23:56:00,
2013-12-01 19:11:00,31.9,29.0,30.05,NW,321,0.0,0.0,87,0.00,,,0.00,weatherlink.com 1.10,2013-12-02 00:11:00,
2013-12-01 19:26:00,30.9,28.0,30.04,NW,321,0.0,0.0,87,0.00,,,0.00,weatherlink.com 1.10,2013-12-02 00:26:00,
2013-12-01 19:41:00,30.4,28.0,30.05,NW,321,0.0,0.0,89,0.00,,,0.00,weatherlink.com 1.10,2013-12-02 00:41:00,
2013-12-01 19:57:00,29.7,27.0,30.05,NW,321,0.0,0.0,89,0.00,,,0.00,weatherlink.com 1.10,2013-12-02 00:57:00,
2013-12-01 20:12:00,29.7,27.0,30.04,NW,321,0.0,0.0,90,0.00,,,0.00,weatherlink.com 1.10,2013-12-02 01:12:00,
2013-12-01 20:27:00,29.2,27.0,30.04,NW,321,0.0,0.0,90,0.00,,,0.00,weatherlink.com 1.10,2013-12-02 01:27:00,
2013-12-01 20:42:00,28.6,26.0,30.04,NW,321,0.0,0.0,91,0.00,,,0.00,weatherlink.com 1.10,2013-12-02 01:42:00,
2013-12-01 20:57:00,27.8,26.0,30.03,NW,320,0.0,0.0,91,0.00,,,0.00,weatherlink.com 1.10,2013-12-02 01:57:00,
2013-12-01 21:12:00,27.8,26.0,30.04,NW,321,0.0,1.0,93,0.00,,,0.00,weatherlink.com 1.10,2013-12-02 02:12:00,
2013-12-01 21:27:00,27.6,26.0,30.04,NW,321,0.0,0.0,92,0.00,,,0.00,weatherlink.com 1.10,2013-12-02 02:27:00,
2013-12-01 21:42:00,27.3,26.0,30.04,NW,321,0.0,0.0,93,0.00,,,0.00,weatherlink.com 1.10,2013-12-02 02:42:00,
2013-12-01 21:57:00,26.8,25.0,30.03,NW,321,0.0,0.0,92,0.00,,,0.00,weatherlink.com 1.10,2013-12-02 02:57:00,
2013-12-01 22:12:00,26.6,25.0,30.03,NW,321,0.0,0.0,92,0.00,,,0.00,weatherlink.com 1.10,2013-12-02 03:12:00,
2013-12-01 22:27:00,26.3,25.0,30.03,NW,320,0.0,0.0,93,0.00,,,0.00,weatherlink.com 1.10,2013-12-02 03:27:00,
2013-12-01 22:42:00,25.9,24.0,30.03,NW,321,0.0,0.0,93,0.00,,,0.00,weatherlink.com 1.10,2013-12-02 03:42:00,
2013-12-01 22:57:00,25.5,24.0,30.03,NW,321,0.0,0.0,94,0.00,,,0.00,weatherlink.com 1.10,2013-12-02 03:57:00,
2013-12-01 23:12:00,25.4,24.0,30.03,NW,321,0.0,0.0,94,0.00,,,0.00,weatherlink.com 1.10,2013-12-02 04:12:00,
2013-12-01 23:27:00,25.4,24.0,30.03,NW,321,0.0,0.0,94,0.00,,,0.00,weatherlink.com 1.10,2013-12-02 04:27:00,
2013-12-01 23:42:00,26.1,25.0,30.03,NW,320,0.0,1.0,94,0.00,,,0.00,weatherlink.com 1.10,2013-12-02 04:42:00,
2013-12-01 23:57:00,25.6,24.0,30.02,NW,321,0.0,0.0,94,0.00,,,0.00,weatherlink.com 1.10,2013-12-02 04:57:00,